Regional Weather Roundup
Issued by NWS

Home | Current Version | Previous Version | Text Only | Print | Product List | Glossary Off
Versions: 1 2 3 4 5 6 7 8 9 10 11 12 13 14 15 16 17 18 19 20 21 22 23 24 25 26 27 28 29 30 31 32 33 34 35 36 37 38 39 40 41 42 43 44 45 46 47 48 49 50

000
ASUS43 KOAX 281410
RWRNE

WEATHER ROUNDUP FOR NEBRASKA
NATIONAL WEATHER SERVICE OMAHA NE
800 AM CST SUN DEC 28 2014

NOTES: SATELLITE DATA IS BEING USED TO AUGMENT CLOUD COVER ABOVE
       12000 FEET.
       "FAIR" INDICATES FEW OR NO CLOUDS BELOW 12,000 FEET WITH NO
       SIGNIFICANT WEATHER AND/OR OBSTRUCTIONS TO VISIBILITY.

  * THESE STATIONS DO NOT REPORT WEATHER SUCH AS RAIN...SNOW OR FOG.

NEZ001>004-019>022-054>056-281500-
NEBRASKA PANHANDLE

CITY           SKY/WX    TMP DP  RH WIND       PRES   REMARKS
SCOTTSBLUFF    CLOUDY    10   5  80 E8        29.95F WCI  -2
ALLIANCE       CLOUDY     8   3  80 CALM      29.95S
CHADRON        PTCLDY     4  -1  80 CALM      29.96S
KIMBALL        CLOUDY    14   8  79 SW3       29.91F
SIDNEY         PTCLDY     6  -1  73 W6        29.97S WCI  -4
$$

NEZ057>060-069>072-079>082-281500-
SOUTHWEST NEBRASKA

CITY           SKY/WX    TMP DP  RH WIND       PRES   REMARKS
NORTH PLATTE   PTCLDY    -3  -7  82 NW6       30.06S WCI -15
IMPERIAL       CLEAR      2  -3  80 W5        30.02F WCI  -8
LEXINGTON      PTCLDY     4   0  86 W7        30.07R WCI  -8
MCCOOK         CLEAR      4   0  83 SW7       30.07S WCI  -8
OGALLALA       PTCLDY    -2  -6  85 W7        30.03R WCI -16
$$

NEZ005>010-023>029-035>040-094-281500-
NORTH CENTRAL NEBRASKA

CITY           SKY/WX    TMP DP  RH WIND       PRES   REMARKS
VALENTINE      PTCLDY     0  -4  83 W7        30.02S WCI -13
AINSWORTH      PTCLDY     6   1  80 W6        30.02S WCI  -4
BROKEN BOW     PTCLDY     4   1  88 CALM      30.03F
O`NEILL        PTCLDY     5   4  94 W3        30.06S
ORD            MOCLDY     2  -1  88 NW5       30.07R WCI  -8
THEDFORD       PTCLDY     4   0  84 W3        30.02S
$$

NEZ041-046>049-061>064-073>077-083>087-281500-
SOUTH CENTRAL NEBRASKA

CITY           SKY/WX    TMP DP  RH WIND       PRES   REMARKS
GRAND ISLAND   PTCLDY     8   3  80 W7        30.10R WCI  -3
AURORA         PTCLDY     8   5  86 W5        30.09S WCI   0
HASTINGS       PTCLDY    13   6  74 W9        30.07F WCI   1
HEBRON         CLEAR     14  10  82 SW6       30.15R WCI   5
HOLDREGE       PTCLDY    11   5  78 W6        30.07S WCI   1
KEARNEY *      PTCLDY     9   3  78 SW6       30.08R WCI  -1
YORK           PTCLDY     9   5  85 W3        30.10S
$$

NEZ011>018-030>034-042>045-281500-
NORTHEAST NEBRASKA

CITY           SKY/WX    TMP DP  RH WIND       PRES   REMARKS
NORFOLK        PTCLDY     7   3  84 W6        30.09R WCI  -3
ALBION         MOCLDY     1  -3  83 CALM      30.08S
BLAIR          CLEAR     14  11  87 S6        30.11S WCI   5
COLUMBUS *     PTCLDY     3  -2  78 W3        30.11S
FREMONT        FAIR      11   8  89 CALM      30.13S
TEKAMAH        PTCLDY    11   7  84 S3        30.14R
WAYNE          CLEAR      4   1  85 S5        30.10R WCI  -5
$$

NEZ050>053-065>068-078-088>093-281500-
SOUTHEAST NEBRASKA

CITY           SKY/WX    TMP DP  RH WIND       PRES   REMARKS
LINCOLN        CLEAR     13   9  84 S5        30.16R WCI   5
OMAHA EPPLEY   CLEAR     16  12  84 SE5       30.16R WCI   9
BEATRICE       CLEAR     13  10  87 CALM      30.15S
FALLS CITY     CLEAR     14  10  84 CALM      30.17S
NEBRASKA CITY  CLEAR     17  13  82 SW8       30.14S WCI   7
PLATTSMOUTH    CLEAR     16  12  84 SW8       30.13F WCI   5
$$

NEZ044-045-051>053-067-281500-
OMAHA AREA

CITY           SKY/WX    TMP DP  RH WIND       PRES   REMARKS
OMAHA EPPLEY   CLEAR     16  12  84 SE5       30.16R WCI   9
BLAIR          CLEAR     14  11  87 S6        30.11S WCI   5
FREMONT        FAIR      11   8  89 CALM      30.13S
MILLARD        CLEAR     15  13  90 CALM      30.15S
OFFUTT AFB     FAIR      15  12  85 CALM      30.14S
PLATTSMOUTH    CLEAR     16  12  84 SW8       30.13F WCI   5
WAHOO          FAIR      10   6  84 S5        30.13R WCI   2
$$


USA.gov is the U.S. government's official web portal to all federal, state and local government web resources and services.